TimeMDT,TemperatureF,Dew PointF,Humidity,Sea Level PressureIn,VisibilityMPH,Wind Direction,Wind SpeedMPH,Gust SpeedMPH,PrecipitationIn,Events,Conditions,WindDirDegrees,DateUTC
12:12 AM,51.8,35.6,54,30.71,10.0,West,9.2,-,N/A,,Clear,280,2013-07-02 06:12:00
12:16 AM,51.8,35.6,54,30.71,10.0,West,11.5,-,N/A,,Clear,280,2013-07-02 06:16:00
1:12 AM,50.0,33.8,54,30.69,10.0,West,5.8,-,N/A,,Clear,280,2013-07-02 07:12:00
1:32 AM,48.2,35.6,62,30.69,10.0,NW,3.5,-,N/A,,Clear,320,2013-07-02 07:32:00
1:52 AM,48.2,33.8,58,30.69,10.0,WNW,4.6,-,N/A,,Clear,300,2013-07-02 07:52:00
2:12 AM,46.4,35.6,66,30.69,10.0,West,10.4,-,N/A,,Clear,280,2013-07-02 08:12:00
2:32 AM,46.4,33.8,62,30.69,10.0,West,13.8,-,N/A,,Clear,270,2013-07-02 08:32:00
2:52 AM,46.4,33.8,62,30.69,10.0,West,12.7,-,N/A,,Clear,270,2013-07-02 08:52:00
3:12 AM,46.4,33.8,62,30.68,10.0,West,11.5,16.1,N/A,,Clear,280,2013-07-02 09:12:00
3:32 AM,46.4,32.0,57,30.68,10.0,West,13.8,18.4,N/A,,Clear,280,2013-07-02 09:32:00
3:52 AM,46.4,32.0,57,30.68,10.0,West,12.7,-,N/A,,Clear,270,2013-07-02 09:52:00
4:12 AM,46.4,32.0,57,30.68,10.0,West,13.8,18.4,N/A,,Clear,280,2013-07-02 10:12:00
4:32 AM,46.4,32.0,57,30.68,10.0,West,12.7,-,N/A,,Clear,280,2013-07-02 10:32:00
4:52 AM,46.4,32.0,57,30.68,10.0,West,12.7,-,N/A,,Clear,280,2013-07-02 10:52:00
5:12 AM,46.4,32.0,57,30.68,10.0,West,6.9,-,N/A,,Clear,280,2013-07-02 11:12:00
5:32 AM,46.4,32.0,57,30.68,10.0,West,6.9,-,N/A,,Clear,280,2013-07-02 11:32:00
5:52 AM,46.4,32.0,57,30.68,10.0,West,6.9,-,N/A,,Clear,270,2013-07-02 11:52:00
6:12 AM,46.4,32.0,57,30.67,10.0,West,9.2,-,N/A,,Clear,280,2013-07-02 12:12:00
6:32 AM,46.4,32.0,57,30.67,10.0,West,12.7,-,N/A,,Clear,280,2013-07-02 12:32:00
6:52 AM,46.4,32.0,57,30.67,10.0,West,8.1,16.1,N/A,,Clear,280,2013-07-02 12:52:00
7:12 AM,46.4,32.0,57,30.67,10.0,West,9.2,-,N/A,,Clear,270,2013-07-02 13:12:00
7:32 AM,46.4,32.0,57,30.68,10.0,West,13.8,18.4,N/A,,Clear,280,2013-07-02 13:32:00
8:12 AM,50.0,33.8,54,30.68,10.0,WNW,11.5,21.9,N/A,,Clear,290,2013-07-02 14:12:00
8:32 AM,50.0,33.8,54,30.68,10.0,West,10.4,17.3,N/A,,Clear,280,2013-07-02 14:32:00
8:52 AM,51.8,35.6,54,30.68,10.0,West,10.4,17.3,N/A,,Clear,280,2013-07-02 14:52:00
9:12 AM,51.8,33.8,50,30.68,10.0,WNW,12.7,19.6,N/A,,Clear,290,2013-07-02 15:12:00
9:32 AM,53.6,33.8,47,30.68,10.0,West,9.2,-,N/A,,Clear,280,2013-07-02 15:32:00
9:52 AM,53.6,32.0,44,30.68,10.0,WNW,13.8,21.9,N/A,,Clear,290,2013-07-02 15:52:00
10:12 AM,53.6,30.2,41,30.68,10.0,WNW,15.0,23.0,N/A,,Clear,290,2013-07-02 16:12:00
10:32 AM,55.4,30.2,38,30.68,10.0,WNW,15.0,21.9,N/A,,Clear,290,2013-07-02 16:32:00
10:52 AM,57.2,30.2,36,30.68,10.0,WNW,8.1,20.7,N/A,,Clear,290,2013-07-02 16:52:00
11:12 AM,59.0,30.2,34,30.68,10.0,West,17.3,27.6,N/A,,Clear,280,2013-07-02 17:12:00
11:32 AM,59.0,28.4,31,30.68,10.0,WNW,10.4,21.9,N/A,,Clear,290,2013-07-02 17:32:00
11:52 AM,59.0,28.4,31,30.67,10.0,WNW,11.5,21.9,N/A,,Clear,290,2013-07-02 17:52:00
12:12 PM,60.8,24.8,25,30.68,10.0,WNW,6.9,20.7,N/A,,Scattered Clouds,290,2013-07-02 18:12:00
12:32 PM,59.0,26.6,29,30.68,10.0,WNW,9.2,21.9,N/A,,Scattered Clouds,290,2013-07-02 18:32:00
12:52 PM,59.0,26.6,29,30.67,10.0,WNW,9.2,24.2,N/A,,Scattered Clouds,300,2013-07-02 18:52:00
1:12 PM,60.8,21.2,22,30.67,10.0,WNW,25.3,32.2,N/A,,Scattered Clouds,290,2013-07-02 19:12:00
1:32 PM,59.0,19.4,22,30.67,10.0,West,19.6,35.7,N/A,,Scattered Clouds,280,2013-07-02 19:32:00
1:52 PM,59.0,21.2,23,30.66,10.0,WNW,21.9,35.7,N/A,,Mostly Cloudy,290,2013-07-02 19:52:00
2:12 PM,60.8,23.0,23,30.66,10.0,WNW,20.7,28.8,N/A,,Scattered Clouds,290,2013-07-02 20:12:00
2:32 PM,60.8,19.4,20,30.65,10.0,WNW,31.1,39.1,N/A,,Scattered Clouds,290,2013-07-02 20:32:00
2:52 PM,60.8,21.2,22,30.66,10.0,WNW,17.3,35.7,N/A,,Clear,300,2013-07-02 20:52:00
3:12 PM,64.4,23.0,21,30.65,10.0,WNW,16.1,28.8,N/A,,Scattered Clouds,290,2013-07-02 21:12:00
3:32 PM,64.4,23.0,21,30.64,10.0,West,23.0,36.8,N/A,,Scattered Clouds,280,2013-07-02 21:32:00
3:52 PM,64.4,23.0,21,30.64,10.0,WNW,8.1,26.5,N/A,,Scattered Clouds,290,2013-07-02 21:52:00
4:12 PM,64.4,24.8,22,30.64,10.0,WNW,25.3,34.5,N/A,,Scattered Clouds,290,2013-07-02 22:12:00
4:32 PM,64.4,23.0,21,30.64,10.0,West,26.5,38.0,N/A,,Mostly Cloudy,280,2013-07-02 22:32:00
4:52 PM,64.4,28.4,26,30.64,10.0,WNW,10.4,23.0,N/A,,Overcast,290,2013-07-02 22:52:00
5:12 PM,60.8,26.6,27,30.62,10.0,WNW,17.3,21.9,N/A,,Mostly Cloudy,290,2013-07-02 23:12:00
5:32 PM,59.0,33.8,39,30.64,10.0,WNW,17.3,32.2,N/A,Thunderstorm,Thunderstorm,290,2013-07-02 23:32:00
5:52 PM,59.0,33.8,39,30.64,10.0,WNW,4.6,-,N/A,Rain-Thunderstorm,Light Thunderstorms and Rain,300,2013-07-02 23:52:00
6:12 PM,60.8,32.0,34,30.64,10.0,West,19.6,29.9,N/A,,Overcast,270,2013-07-03 00:12:00
6:32 PM,59.0,32.0,36,30.64,10.0,West,23.0,28.8,N/A,,Mostly Cloudy,270,2013-07-03 00:32:00
6:52 PM,60.8,32.0,34,30.63,10.0,West,19.6,26.5,N/A,Thunderstorm,Scattered Clouds,280,2013-07-03 00:52:00
7:12 PM,59.0,32.0,36,30.63,10.0,West,21.9,31.1,N/A,,Mostly Cloudy,280,2013-07-03 01:12:00
7:32 PM,60.8,33.8,36,30.64,10.0,North,9.2,27.6,N/A,Rain-Thunderstorm,Thunderstorms and Rain,350,2013-07-03 01:32:00
7:52 PM,59.0,33.8,39,30.63,10.0,WNW,11.5,21.9,0.01,,Mostly Cloudy,290,2013-07-03 01:52:00
8:12 PM,55.4,32.0,41,30.62,10.0,West,9.2,-,N/A,,Scattered Clouds,280,2013-07-03 02:12:00
8:32 PM,55.4,32.0,41,30.62,10.0,West,8.1,-,N/A,,Mostly Cloudy,280,2013-07-03 02:32:00
8:52 PM,53.6,32.0,44,30.62,10.0,West,8.1,-,N/A,,Scattered Clouds,270,2013-07-03 02:52:00
9:12 PM,53.6,37.4,54,30.62,10.0,WSW,3.5,-,N/A,,Scattered Clouds,240,2013-07-03 03:12:00
9:32 PM,53.6,33.8,47,30.63,10.0,West,4.6,-,N/A,,Scattered Clouds,280,2013-07-03 03:32:00
9:52 PM,53.6,35.6,51,30.63,10.0,West,9.2,-,N/A,,Scattered Clouds,270,2013-07-03 03:52:00
10:12 PM,51.8,35.6,54,30.63,10.0,West,9.2,-,N/A,,Scattered Clouds,270,2013-07-03 04:12:00
10:32 PM,51.8,35.6,54,30.63,10.0,West,11.5,-,N/A,,Clear,270,2013-07-03 04:32:00
10:52 PM,51.8,37.4,58,30.63,10.0,West,9.2,-,N/A,,Clear,270,2013-07-03 04:52:00
11:12 PM,51.8,35.6,54,30.63,10.0,Calm,Calm,-,N/A,,Clear,0,2013-07-03 05:12:00
11:32 PM,51.8,35.6,54,30.62,10.0,West,9.2,-,N/A,,Clear,260,2013-07-03 05:32:00
11:52 PM,51.8,35.6,54,30.62,10.0,West,11.5,-,N/A,,Clear,270,2013-07-03 05:52:00